Time,TemperatureF,DewpointF,PressureIn,WindDirection,WindDirectionDegrees,WindSpeedMPH,WindSpeedGustMPH,Humidity,HourlyPrecipIn,Conditions,Clouds,dailyrainin,SoftwareType,DateUTC
2013-09-21 00:05:00,71.8,70.0,29.84,NNE,29,3.0,3.0,94,0.00,,,0.78,Wunderground v.1.15,2013-09-21 05:05:00,
2013-09-21 00:14:00,71.8,70.0,29.85,NNE,32,3.0,3.0,94,0.00,,,0.00,Wunderground v.1.15,2013-09-21 05:14:00,
2013-09-21 00:20:00,71.8,70.0,29.85,NNW,333,3.0,4.0,94,0.00,,,0.00,Wunderground v.1.15,2013-09-21 05:20:00,
2013-09-21 00:29:00,71.9,70.1,29.85,NNE,29,3.0,3.0,94,0.00,,,0.00,Wunderground v.1.15,2013-09-21 05:29:00,
2013-09-21 00:35:00,72.0,70.2,29.85,North,352,3.0,3.0,94,0.00,,,0.00,Wunderground v.1.15,2013-09-21 05:35:00,
2013-09-21 00:44:00,72.0,69.9,29.85,North,359,3.0,3.0,93,0.00,,,0.00,Wunderground v.1.15,2013-09-21 05:44:00,
2013-09-21 00:50:00,72.0,69.9,29.85,NNW,332,3.0,3.0,93,0.00,,,0.00,Wunderground v.1.15,2013-09-21 05:50:00,
2013-09-21 00:59:00,72.0,69.9,29.84,NNE,27,2.0,2.0,93,0.00,,,0.00,Wunderground v.1.15,2013-09-21 05:59:00,
2013-09-21 01:05:00,72.0,70.2,29.85,NNE,27,2.0,2.0,94,0.00,,,0.00,Wunderground v.1.15,2013-09-21 06:05:00,
2013-09-21 01:15:00,72.0,70.2,29.85,NW,316,3.0,5.0,94,0.00,,,0.00,Wunderground v.1.15,2013-09-21 06:15:00,
2013-09-21 01:24:00,72.2,70.1,29.85,NE,44,4.0,5.0,93,0.00,,,0.00,Wunderground v.1.15,2013-09-21 06:24:00,
2013-09-21 01:30:00,72.2,70.1,29.85,North,356,3.0,6.0,93,0.00,,,0.00,Wunderground v.1.15,2013-09-21 06:30:00,
2013-09-21 01:39:00,72.1,69.6,29.85,NNE,13,4.0,4.0,92,0.00,,,0.00,Wunderground v.1.15,2013-09-21 06:39:00,
2013-09-21 01:50:00,71.9,69.8,29.85,NNW,328,4.0,4.0,93,0.00,,,0.00,Wunderground v.1.15,2013-09-21 06:50:00,
2013-09-21 02:00:00,71.6,69.5,29.85,NNW,344,2.0,2.0,93,0.00,,,0.00,Wunderground v.1.15,2013-09-21 07:00:00,
2013-09-21 02:09:00,71.5,69.4,29.85,North,5,3.0,3.0,93,0.00,,,0.00,Wunderground v.1.15,2013-09-21 07:09:00,
2013-09-21 02:14:00,71.4,69.3,29.85,North,9,3.0,3.0,93,0.00,,,0.00,Wunderground v.1.15,2013-09-21 07:14:00,
2013-09-21 02:25:00,71.4,69.3,29.85,North,355,3.0,4.0,93,0.00,,,0.00,Wunderground v.1.15,2013-09-21 07:25:00,
2013-09-21 02:34:00,71.3,69.2,29.84,North,352,3.0,5.0,93,0.00,,,0.00,Wunderground v.1.15,2013-09-21 07:34:00,
2013-09-21 02:40:00,71.3,69.2,29.84,NNE,26,3.0,3.0,93,0.00,,,0.00,Wunderground v.1.15,2013-09-21 07:40:00,
2013-09-21 02:49:00,71.2,69.1,29.85,NNE,15,2.0,3.0,93,0.00,,,0.00,Wunderground v.1.15,2013-09-21 07:49:00,
2013-09-21 02:59:00,71.2,69.1,29.84,NNW,347,3.0,3.0,93,0.00,,,0.00,Wunderground v.1.15,2013-09-21 07:59:00,
2013-09-21 03:10:00,71.2,69.1,29.84,NNW,332,3.0,5.0,93,0.00,,,0.00,Wunderground v.1.15,2013-09-21 08:10:00,
2013-09-21 03:19:00,71.3,68.9,29.85,NE,41,3.0,3.0,92,0.00,,,0.00,Wunderground v.1.15,2013-09-21 08:19:00,
2013-09-21 03:30:00,71.3,68.9,29.85,NW,317,2.0,2.0,92,0.00,,,0.00,Wunderground v.1.15,2013-09-21 08:30:00,
2013-09-21 03:39:00,71.3,68.9,29.85,NW,321,3.0,4.0,92,0.00,,,0.00,Wunderground v.1.15,2013-09-21 08:39:00,
2013-09-21 03:45:00,71.4,69.0,29.84,NNE,29,3.0,4.0,92,0.00,,,0.00,Wunderground v.1.15,2013-09-21 08:45:00,
2013-09-21 03:55:00,71.4,69.0,29.84,North,360,3.0,4.0,92,0.00,,,0.00,Wunderground v.1.15,2013-09-21 08:55:00,
2013-09-21 04:04:00,71.4,69.0,29.84,ENE,58,3.0,6.0,92,0.00,,,0.00,Wunderground v.1.15,2013-09-21 09:04:00,
2013-09-21 04:10:00,71.5,69.1,29.84,NNE,27,4.0,6.0,92,0.00,,,0.00,Wunderground v.1.15,2013-09-21 09:10:00,
2013-09-21 04:19:00,71.6,69.2,29.83,North,7,4.0,4.0,92,0.00,,,0.00,Wunderground v.1.15,2013-09-21 09:19:00,
2013-09-21 04:25:00,71.6,69.2,29.83,NE,37,4.0,4.0,92,0.00,,,0.00,Wunderground v.1.15,2013-09-21 09:25:00,
2013-09-21 04:34:00,71.6,69.2,29.83,NNW,335,3.0,3.0,92,0.00,,,0.00,Wunderground v.1.15,2013-09-21 09:34:00,
2013-09-21 04:40:00,71.6,69.2,29.83,NNW,338,3.0,3.0,92,0.00,,,0.00,Wunderground v.1.15,2013-09-21 09:40:00,
2013-09-21 04:49:00,71.6,69.2,29.83,NNE,24,3.0,5.0,92,0.00,,,0.00,Wunderground v.1.15,2013-09-21 09:49:00,
2013-09-21 04:55:00,71.7,69.3,29.83,NNE,16,3.0,5.0,92,0.00,,,0.00,Wunderground v.1.15,2013-09-21 09:55:00,
2013-09-21 05:04:00,71.6,69.2,29.83,NNE,30,4.0,9.0,92,0.00,,,0.00,Wunderground v.1.15,2013-09-21 10:04:00,
2013-09-21 05:10:00,71.6,69.2,29.83,NNE,30,4.0,4.0,92,0.00,,,0.00,Wunderground v.1.15,2013-09-21 10:10:00,
2013-09-21 05:19:00,71.5,69.1,29.84,North,5,3.0,3.0,92,0.00,,,0.00,Wunderground v.1.15,2013-09-21 10:19:00,
2013-09-21 05:25:00,71.5,69.1,29.83,NNE,32,3.0,3.0,92,0.00,,,0.00,Wunderground v.1.15,2013-09-21 10:25:00,
2013-09-21 05:34:00,71.4,69.0,29.84,WNW,298,3.0,4.0,92,0.00,,,0.00,Wunderground v.1.15,2013-09-21 10:34:00,
2013-09-21 05:40:00,71.4,69.0,29.84,North,5,3.0,3.0,92,0.00,,,0.00,Wunderground v.1.15,2013-09-21 10:40:00,
2013-09-21 05:49:00,71.3,68.9,29.84,NNE,22,5.0,6.0,92,0.00,,,0.00,Wunderground v.1.15,2013-09-21 10:49:00,
2013-09-21 05:59:00,71.2,68.8,29.84,NNE,13,5.0,5.0,92,0.00,,,0.00,Wunderground v.1.15,2013-09-21 10:59:00,
2013-09-21 06:10:00,71.2,68.4,29.84,NE,47,5.0,5.0,91,0.00,,,0.00,Wunderground v.1.15,2013-09-21 11:10:00,
2013-09-21 06:20:00,71.2,68.4,29.84,NNW,347,4.0,4.0,91,0.00,,,0.00,Wunderground v.1.15,2013-09-21 11:20:00,
2013-09-21 06:29:00,71.2,68.4,29.85,NE,48,3.0,3.0,91,0.00,,,0.00,Wunderground v.1.15,2013-09-21 11:29:00,
2013-09-21 06:35:00,71.2,68.4,29.85,NNE,33,3.0,3.0,91,0.00,,,0.00,Wunderground v.1.15,2013-09-21 11:35:00,
2013-09-21 06:44:00,71.2,68.4,29.85,NW,318,3.0,3.0,91,0.00,,,0.00,Wunderground v.1.15,2013-09-21 11:44:00,
2013-09-21 06:50:00,71.2,68.4,29.85,NW,315,3.0,3.0,91,0.00,,,0.00,Wunderground v.1.15,2013-09-21 11:50:00,
2013-09-21 06:59:00,71.2,68.1,29.86,NNE,13,4.0,6.0,90,0.00,,,0.00,Wunderground v.1.15,2013-09-21 11:59:00,
2013-09-21 07:09:00,71.2,68.1,29.86,NW,324,4.0,4.0,90,0.00,,,0.00,Wunderground v.1.15,2013-09-21 12:09:00,
2013-09-21 07:20:00,71.1,68.0,29.86,NW,312,4.0,5.0,90,0.00,,,0.00,Wunderground v.1.15,2013-09-21 12:20:00,
2013-09-21 07:29:00,71.0,67.9,29.86,NW,315,3.0,3.0,90,0.00,,,0.00,Wunderground v.1.15,2013-09-21 12:29:00,
2013-09-21 07:35:00,71.0,67.6,29.87,North,351,4.0,4.0,89,0.00,,,0.00,Wunderground v.1.15,2013-09-21 12:35:00,
2013-09-21 07:44:00,71.0,67.6,29.87,North,358,4.0,5.0,89,0.00,,,0.00,Wunderground v.1.15,2013-09-21 12:44:00,
2013-09-21 07:50:00,71.0,67.6,29.87,WNW,299,4.0,6.0,89,0.00,,,0.00,Wunderground v.1.15,2013-09-21 12:50:00,
2013-09-21 07:59:00,70.9,67.2,29.88,NW,304,4.0,4.0,88,0.00,,,0.00,Wunderground v.1.15,2013-09-21 12:59:00,
2013-09-21 08:05:00,70.9,67.5,29.88,ENE,61,4.0,4.0,89,0.00,,,0.00,Wunderground v.1.15,2013-09-21 13:05:00,
2013-09-21 08:14:00,70.9,67.2,29.88,NNE,25,4.0,8.0,88,0.00,,,0.00,Wunderground v.1.15,2013-09-21 13:14:00,
2013-09-21 08:20:00,70.9,67.2,29.89,NNE,30,3.0,4.0,88,0.00,,,0.00,Wunderground v.1.15,2013-09-21 13:20:00,
2013-09-21 08:30:00,70.9,67.2,29.89,NNW,343,3.0,3.0,88,0.00,,,0.00,Wunderground v.1.15,2013-09-21 13:30:00,
2013-09-21 08:39:00,71.0,67.3,29.90,NNW,335,3.0,3.0,88,0.00,,,0.00,Wunderground v.1.15,2013-09-21 13:39:00,
2013-09-21 08:45:00,71.1,67.0,29.90,NE,55,2.0,5.0,87,0.00,,,0.00,Wunderground v.1.15,2013-09-21 13:45:00,
2013-09-21 08:55:00,71.2,67.1,29.90,NW,311,3.0,7.0,87,0.00,,,0.00,Wunderground v.1.15,2013-09-21 13:55:00,
2013-09-21 09:04:00,71.1,66.7,29.90,North,357,5.0,6.0,86,0.00,,,0.00,Wunderground v.1.15,2013-09-21 14:04:00,
2013-09-21 09:10:00,71.1,66.7,29.90,WNW,302,5.0,5.0,86,0.00,,,0.00,Wunderground v.1.15,2013-09-21 14:10:00,
2013-09-21 09:19:00,71.0,66.6,29.90,ENE,66,4.0,6.0,86,0.00,,,0.00,Wunderground v.1.15,2013-09-21 14:19:00,
2013-09-21 09:29:00,71.2,66.8,29.90,NW,311,4.0,4.0,86,0.00,,,0.00,Wunderground v.1.15,2013-09-21 14:29:00,
2013-09-21 09:45:00,71.9,67.1,29.90,North,351,3.0,3.0,85,0.00,,,0.00,Wunderground v.1.15,2013-09-21 14:45:00,
2013-09-21 09:54:00,72.3,67.2,29.91,WNW,293,4.0,10.0,84,0.00,,,0.00,Wunderground v.1.15,2013-09-21 14:54:00,
2013-09-21 10:00:00,72.4,66.9,29.91,NE,35,4.0,5.0,83,0.00,,,0.00,Wunderground v.1.15,2013-09-21 15:00:00,
2013-09-21 10:09:00,72.3,66.5,29.91,NW,304,5.0,5.0,82,0.00,,,0.00,Wunderground v.1.15,2013-09-21 15:09:00,
2013-09-21 10:15:00,72.4,66.6,29.91,NNW,335,4.0,5.0,82,0.00,,,0.00,Wunderground v.1.15,2013-09-21 15:15:00,
2013-09-21 10:24:00,72.9,67.4,29.92,ENE,74,4.0,5.0,83,0.00,,,0.00,Wunderground v.1.15,2013-09-21 15:24:00,
2013-09-21 10:30:00,73.2,67.4,29.91,North,349,3.0,4.0,82,0.00,,,0.00,Wunderground v.1.15,2013-09-21 15:30:00,
2013-09-21 10:39:00,73.5,67.3,29.92,ESE,111,4.0,8.0,81,0.00,,,0.00,Wunderground v.1.15,2013-09-21 15:39:00,
2013-09-21 10:45:00,73.7,67.5,29.92,NW,324,4.0,8.0,81,0.00,,,0.00,Wunderground v.1.15,2013-09-21 15:45:00,
2013-09-21 10:54:00,74.0,67.4,29.92,NW,319,5.0,5.0,80,0.00,,,0.00,Wunderground v.1.15,2013-09-21 15:54:00,
2013-09-21 11:00:00,74.4,67.8,29.92,SW,225,4.0,4.0,80,0.00,,,0.00,Wunderground v.1.15,2013-09-21 16:00:00,
2013-09-21 11:10:00,74.6,67.7,29.92,NE,41,3.0,7.0,79,0.00,,,0.00,Wunderground v.1.15,2013-09-21 16:10:00,
2013-09-21 11:19:00,74.2,66.9,29.92,NW,312,5.0,5.0,78,0.00,,,0.00,Wunderground v.1.15,2013-09-21 16:19:00,
2013-09-21 11:25:00,74.1,67.2,29.92,WNW,298,5.0,5.0,79,0.00,,,0.00,Wunderground v.1.15,2013-09-21 16:25:00,
2013-09-21 11:34:00,74.8,67.5,29.92,North,352,3.0,5.0,78,0.00,,,0.00,Wunderground v.1.15,2013-09-21 16:34:00,
2013-09-21 11:40:00,75.2,67.5,29.92,NW,304,4.0,5.0,77,0.00,,,0.00,Wunderground v.1.15,2013-09-21 16:40:00,
2013-09-21 11:49:00,75.5,67.4,29.92,NE,40,5.0,5.0,76,0.00,,,0.00,Wunderground v.1.15,2013-09-21 16:49:00,
2013-09-21 11:55:00,76.1,68.0,29.92,NNE,16,4.0,5.0,76,0.00,,,0.00,Wunderground v.1.15,2013-09-21 16:55:00,
2013-09-21 12:04:00,76.5,67.6,29.92,NW,304,4.0,4.0,74,0.00,,,0.00,Wunderground v.1.15,2013-09-21 17:04:00,
2013-09-21 12:10:00,76.8,67.5,29.92,NNW,335,4.0,4.0,73,0.00,,,0.00,Wunderground v.1.15,2013-09-21 17:10:00,
2013-09-21 12:19:00,77.1,67.8,29.92,NW,311,4.0,4.0,73,0.00,,,0.00,Wunderground v.1.15,2013-09-21 17:19:00,
2013-09-21 12:25:00,76.9,67.6,29.91,NE,51,4.0,4.0,73,0.00,,,0.00,Wunderground v.1.15,2013-09-21 17:25:00,
2013-09-21 12:34:00,76.9,67.6,29.91,NNW,338,5.0,5.0,73,0.00,,,0.00,Wunderground v.1.15,2013-09-21 17:34:00,
2013-09-21 12:40:00,77.1,68.2,29.91,North,9,3.0,3.0,74,0.00,,,0.00,Wunderground v.1.15,2013-09-21 17:40:00,
2013-09-21 12:50:00,78.0,67.0,29.91,NW,325,4.0,6.0,69,0.00,,,0.00,Wunderground v.1.15,2013-09-21 17:50:00,
2013-09-21 12:59:00,78.5,67.9,29.91,NNE,15,4.0,4.0,70,0.00,,,0.00,Wunderground v.1.15,2013-09-21 17:59:00,
2013-09-21 13:10:00,78.7,67.7,29.90,WNW,285,3.0,3.0,69,0.00,,,0.00,Wunderground v.1.15,2013-09-21 18:10:00,
2013-09-21 13:19:00,77.7,67.1,29.90,South,169,4.0,4.0,70,0.00,,,0.00,Wunderground v.1.15,2013-09-21 18:19:00,
2013-09-21 13:25:00,78.1,67.1,29.90,NE,37,3.0,4.0,69,0.00,,,0.00,Wunderground v.1.15,2013-09-21 18:25:00,
2013-09-21 13:35:00,79.5,67.1,29.89,North,352,4.0,4.0,66,0.00,,,0.00,Wunderground v.1.15,2013-09-21 18:35:00,
2013-09-21 13:44:00,80.3,68.3,29.89,NW,323,4.0,5.0,67,0.00,,,0.00,Wunderground v.1.15,2013-09-21 18:44:00,
2013-09-21 13:50:00,80.6,66.8,29.89,North,355,4.0,8.0,63,0.00,,,0.00,Wunderground v.1.15,2013-09-21 18:50:00,
2013-09-21 13:59:00,80.6,67.7,29.88,WNW,293,4.0,4.0,65,0.00,,,0.00,Wunderground v.1.15,2013-09-21 18:59:00,
2013-09-21 14:05:00,80.9,68.0,29.89,NNE,22,3.0,4.0,65,0.00,,,0.00,Wunderground v.1.15,2013-09-21 19:05:00,
2013-09-21 14:14:00,81.0,66.8,29.88,ENE,77,4.0,4.0,62,0.00,,,0.00,Wunderground v.1.15,2013-09-21 19:14:00,
2013-09-21 14:24:00,82.0,66.7,29.87,NW,325,3.0,4.0,60,0.00,,,0.00,Wunderground v.1.15,2013-09-21 19:24:00,
2013-09-21 14:35:00,82.3,66.0,29.87,NE,37,4.0,6.0,58,0.00,,,0.00,Wunderground v.1.15,2013-09-21 19:35:00,
2013-09-21 14:44:00,82.7,65.4,29.86,ESE,107,4.0,4.0,56,0.00,,,0.00,Wunderground v.1.15,2013-09-21 19:44:00,
2013-09-21 14:50:00,82.9,66.1,29.86,NE,51,3.0,3.0,57,0.00,,,0.00,Wunderground v.1.15,2013-09-21 19:50:00,
2013-09-21 15:00:00,83.4,65.0,29.85,ENE,73,3.0,4.0,54,0.00,,,0.00,Wunderground v.1.15,2013-09-21 20:00:00,
2013-09-21 15:09:00,83.9,66.0,29.85,NW,315,3.0,3.0,55,0.00,,,0.00,Wunderground v.1.15,2013-09-21 20:09:00,
2013-09-21 15:15:00,84.2,64.7,29.85,North,6,3.0,4.0,52,0.00,,,0.00,Wunderground v.1.15,2013-09-21 20:15:00,
2013-09-21 15:25:00,84.2,65.2,29.84,NW,306,3.0,10.0,53,0.00,,,0.00,Wunderground v.1.15,2013-09-21 20:25:00,
2013-09-21 15:34:00,84.5,63.8,29.84,NE,54,3.0,5.0,50,0.00,,,0.00,Wunderground v.1.15,2013-09-21 20:34:00,
2013-09-21 15:40:00,84.6,64.5,29.84,NE,46,3.0,3.0,51,0.00,,,0.00,Wunderground v.1.15,2013-09-21 20:40:00,
2013-09-21 15:49:00,84.1,62.9,29.84,NW,326,4.0,4.0,49,0.00,,,0.00,Wunderground v.1.15,2013-09-21 20:49:00,
2013-09-21 15:55:00,84.2,61.8,29.84,North,3,4.0,4.0,47,0.00,,,0.00,Wunderground v.1.15,2013-09-21 20:55:00,
2013-09-21 16:05:00,84.7,61.6,29.84,NNE,26,3.0,8.0,46,0.00,,,0.00,Wunderground v.1.15,2013-09-21 21:05:00,
2013-09-21 16:15:00,85.0,62.5,29.84,NW,323,4.0,4.0,47,0.00,,,0.00,Wunderground v.1.15,2013-09-21 21:15:00,
2013-09-21 16:24:00,85.3,62.2,29.84,NNE,30,3.0,6.0,46,0.00,,,0.00,Wunderground v.1.15,2013-09-21 21:24:00,
2013-09-21 16:35:00,85.9,62.1,29.83,NNE,29,2.0,3.0,45,0.00,,,0.00,Wunderground v.1.15,2013-09-21 21:35:00,
2013-09-21 16:44:00,85.4,62.3,29.83,NNW,338,3.0,6.0,46,0.00,,,0.00,Wunderground v.1.15,2013-09-21 21:44:00,
2013-09-21 16:50:00,85.7,61.3,29.83,NE,41,3.0,3.0,44,0.00,,,0.00,Wunderground v.1.15,2013-09-21 21:50:00,
2013-09-21 17:00:00,85.4,62.3,29.83,NNE,30,3.0,3.0,46,0.00,,,0.00,Wunderground v.1.15,2013-09-21 22:00:00,
2013-09-21 17:09:00,85.3,59.6,29.83,NNE,30,3.0,6.0,42,0.00,,,0.00,Wunderground v.1.15,2013-09-21 22:09:00,
2013-09-21 17:15:00,85.3,61.6,29.83,ENE,74,3.0,6.0,45,0.00,,,0.00,Wunderground v.1.15,2013-09-21 22:15:00,
2013-09-21 17:24:00,85.4,59.7,29.83,NNW,332,2.0,3.0,42,0.00,,,0.00,Wunderground v.1.15,2013-09-21 22:24:00,
2013-09-21 17:30:00,85.1,60.7,29.83,NNE,26,3.0,4.0,44,0.00,,,0.00,Wunderground v.1.15,2013-09-21 22:30:00,
2013-09-21 17:39:00,84.8,59.8,29.83,SE,136,3.0,3.0,43,0.00,,,0.00,Wunderground v.1.15,2013-09-21 22:39:00,
2013-09-21 17:45:00,84.7,59.1,29.83,NNE,13,2.0,3.0,42,0.00,,,0.00,Wunderground v.1.15,2013-09-21 22:45:00,
2013-09-21 17:54:00,84.2,57.9,29.83,NE,50,3.0,3.0,41,0.00,,,0.00,Wunderground v.1.15,2013-09-21 22:54:00,
2013-09-21 18:00:00,84.0,57.8,29.83,NNW,338,3.0,3.0,41,0.00,,,0.00,Wunderground v.1.15,2013-09-21 23:00:00,
2013-09-21 18:09:00,83.8,58.3,29.82,NE,47,3.0,3.0,42,0.00,,,0.00,Wunderground v.1.15,2013-09-21 23:09:00,
2013-09-21 18:15:00,83.7,59.5,29.82,NE,41,3.0,3.0,44,0.00,,,0.00,Wunderground v.1.15,2013-09-21 23:15:00,
2013-09-21 18:25:00,83.3,57.1,29.82,North,7,3.0,6.0,41,0.00,,,0.00,Wunderground v.1.15,2013-09-21 23:25:00,
2013-09-21 18:34:00,82.8,57.4,29.83,North,359,2.0,3.0,42,0.00,,,0.00,Wunderground v.1.15,2013-09-21 23:34:00,
2013-09-21 18:40:00,82.5,57.1,29.83,NNW,333,2.0,3.0,42,0.00,,,0.00,Wunderground v.1.15,2013-09-21 23:40:00,
2013-09-21 18:49:00,82.1,56.7,29.83,North,360,2.0,2.0,42,0.00,,,0.00,Wunderground v.1.15,2013-09-21 23:49:00,
2013-09-21 18:55:00,81.9,57.2,29.83,SW,224,1.0,2.0,43,0.00,,,0.00,Wunderground v.1.15,2013-09-21 23:55:00,
2013-09-21 19:04:00,81.4,56.8,29.83,North,4,2.0,2.0,43,0.00,,,0.00,Wunderground v.1.15,2013-09-22 00:04:00,
2013-09-21 19:10:00,81.1,56.5,29.83,NNE,12,2.0,2.0,43,0.00,,,0.00,Wunderground v.1.15,2013-09-22 00:10:00,
2013-09-21 19:19:00,80.3,57.0,29.83,North,4,1.0,1.0,45,0.00,,,0.00,Wunderground v.1.15,2013-09-22 00:19:00,
2013-09-21 19:25:00,79.7,57.1,29.83,NW,321,1.0,1.0,46,0.00,,,0.00,Wunderground v.1.15,2013-09-22 00:25:00,
2013-09-21 19:34:00,78.6,56.7,29.83,ENE,65,1.0,1.0,47,0.00,,,0.00,Wunderground v.1.15,2013-09-22 00:34:00,
2013-09-21 19:40:00,77.9,57.2,29.83,NE,49,1.0,1.0,49,0.00,,,0.00,Wunderground v.1.15,2013-09-22 00:40:00,
2013-09-21 19:49:00,76.7,57.2,29.83,NNW,337,0.0,0.0,51,0.00,,,0.00,Wunderground v.1.15,2013-09-22 00:49:00,
2013-09-21 19:55:00,76.1,57.2,29.84,NNW,338,0.0,0.0,52,0.00,,,0.00,Wunderground v.1.15,2013-09-22 00:55:00,
2013-09-21 20:05:00,75.0,57.7,29.84,NNW,338,0.0,0.0,55,0.00,,,0.00,Wunderground v.1.15,2013-09-22 01:05:00,
2013-09-21 20:14:00,73.8,57.6,29.84,NNW,338,0.0,0.0,57,0.00,,,0.00,Wunderground v.1.15,2013-09-22 01:14:00,
2013-09-21 20:19:00,73.3,56.7,29.84,North,351,0.0,1.0,56,0.00,,,0.00,Wunderground v.1.15,2013-09-22 01:19:00,
2013-09-21 20:30:00,72.4,57.3,29.85,NNW,338,0.0,1.0,59,0.00,,,0.00,Wunderground v.1.15,2013-09-22 01:30:00,
2013-09-21 20:39:00,71.8,56.2,29.85,NNW,340,0.0,0.0,58,0.00,,,0.00,Wunderground v.1.15,2013-09-22 01:39:00,
2013-09-21 20:45:00,71.7,56.1,29.85,NNW,338,0.0,0.0,58,0.00,,,0.00,Wunderground v.1.15,2013-09-22 01:45:00,
2013-09-21 20:54:00,71.1,57.0,29.86,NNW,338,0.0,0.0,61,0.00,,,0.00,Wunderground v.1.15,2013-09-22 01:54:00,
2013-09-21 21:00:00,70.6,57.4,29.86,NNW,338,0.0,0.0,63,0.00,,,0.00,Wunderground v.1.15,2013-09-22 02:00:00,
2013-09-21 21:10:00,69.9,57.6,29.86,NNW,338,0.0,0.0,65,0.00,,,0.00,Wunderground v.1.15,2013-09-22 02:10:00,
2013-09-21 21:19:00,69.3,57.5,29.86,NNW,338,0.0,0.0,66,0.00,,,0.00,Wunderground v.1.15,2013-09-22 02:19:00,
2013-09-21 21:30:00,68.8,56.1,29.86,NNE,18,0.0,0.0,64,0.00,,,0.00,Wunderground v.1.15,2013-09-22 02:30:00,
2013-09-21 21:39:00,69.0,57.2,29.86,NW,324,1.0,1.0,66,0.00,,,0.00,Wunderground v.1.15,2013-09-22 02:39:00,
2013-09-21 21:45:00,69.0,56.3,29.87,NNW,346,0.0,1.0,64,0.00,,,0.00,Wunderground v.1.15,2013-09-22 02:45:00,
2013-09-21 21:54:00,69.0,55.9,29.86,NNW,332,1.0,1.0,63,0.00,,,0.00,Wunderground v.1.15,2013-09-22 02:54:00,
2013-09-21 21:59:00,69.0,55.9,29.87,NNW,338,1.0,1.0,63,0.00,,,0.00,Wunderground v.1.15,2013-09-22 02:59:00,
2013-09-21 22:10:00,69.1,56.4,29.87,NW,324,1.0,1.0,64,0.00,,,0.00,Wunderground v.1.15,2013-09-22 03:10:00,
2013-09-21 22:19:00,68.9,55.8,29.87,North,359,1.0,1.0,63,0.00,,,0.00,Wunderground v.1.15,2013-09-22 03:19:00,
2013-09-21 22:25:00,68.8,56.6,29.87,North,5,1.0,1.0,65,0.00,,,0.00,Wunderground v.1.15,2013-09-22 03:25:00,
2013-09-21 22:34:00,68.1,56.3,29.87,NNW,327,1.0,1.0,66,0.00,,,0.00,Wunderground v.1.15,2013-09-22 03:34:00,
2013-09-21 22:40:00,67.8,56.0,29.87,NNW,330,1.0,1.0,66,0.00,,,0.00,Wunderground v.1.15,2013-09-22 03:40:00,
2013-09-21 22:50:00,67.6,55.8,29.88,NW,314,1.0,1.0,66,0.00,,,0.00,Wunderground v.1.15,2013-09-22 03:50:00,
2013-09-21 22:59:00,67.0,55.7,29.88,NW,314,0.0,0.0,67,0.00,,,0.00,Wunderground v.1.15,2013-09-22 03:59:00,
2013-09-21 23:04:00,66.9,55.6,29.88,NW,315,0.0,1.0,67,0.00,,,0.00,Wunderground v.1.15,2013-09-22 04:04:00,
2013-09-21 23:10:00,66.7,55.8,29.88,NW,315,0.0,0.0,68,0.00,,,0.00,Wunderground v.1.15,2013-09-22 04:10:00,
2013-09-21 23:20:00,66.3,55.4,29.88,NNE,14,0.0,1.0,68,0.00,,,0.00,Wunderground v.1.15,2013-09-22 04:20:00,
2013-09-21 23:24:00,66.2,56.1,29.88,NNE,25,0.0,1.0,70,0.00,,,0.00,Wunderground v.1.15,2013-09-22 04:24:00,
2013-09-21 23:29:00,66.1,55.6,29.88,NNW,342,1.0,1.0,69,0.00,,,0.00,Wunderground v.1.15,2013-09-22 04:29:00,
2013-09-21 23:34:00,66.0,55.5,29.88,NNW,346,1.0,1.0,69,0.00,,,0.00,Wunderground v.1.15,2013-09-22 04:34:00,
2013-09-21 23:45:00,65.9,55.0,29.88,NNW,328,1.0,1.0,68,0.00,,,0.00,Wunderground v.1.15,2013-09-22 04:45:00,
2013-09-21 23:54:00,65.6,55.2,29.88,NNW,335,0.0,1.0,69,0.00,,,0.00,Wunderground v.1.15,2013-09-22 04:54:00,